Yuma MCAS, AZ

1:37 AM MST on October 22, 2017 (GMT -0700)
Yuma Marine Corps Air Station

Weather History for KNYL - October, 2014

Change the Weather History Date:

Thursday, October 23, 2014

  Actual Average Record
Temperature  
Mean Temperature 84 °F 75 °F  
Max Temperature 97 °F 87 °F 102 °F (1959)
Min Temperature 70 °F 62 °F 43 °F (1920)
Degree Days  
Heating Degree Days 0 0  
Month to date heating degree days 0 0  
Since 1 July heating degree days 0 0  
Cooling Degree Days 19 10  
Month to date cooling degree days 409 322  
Year to date cooling degree days 5062 4496  
Growing Degree Days 34 (Base 50)    
Moisture  
Dew Point 48 °F    
Average Humidity 33    
Maximum Humidity 49    
Minimum Humidity 16    
Precipitation  
Precipitation 0.00 in 0.01 in 1.06 in (1907)
Month to date precipitation 0.05 0.17  
Year to date precipitation 2.33 2.79  
Sea Level Pressure  
Sea Level Pressure 29.90 in    
Wind  
Wind Speed 4 mph (NNE)    
Max Wind Speed 12 mph    
Max Gust Speed 14 mph    
Visibility 10 miles    
Events      
T = Trace of Precipitation, MM = Missing Value Source: NWS Daily Summary

Daily Weather History Graph

Daily Weather History Graph

Search for Another Location

Airport or City:

Trip Planner

Search our weather history database for the weather conditions in past years. The results will help you decide how hot, cold, wet, or windy it might be!

Date:

Astronomy

Oct. 23, 2014 Rise Set
Actual Time 6:48 AM MST 5:56 PM MST
Civil Twilight 6:23 AM MST 6:21 PM MST
Nautical Twilight 5:54 AM MST 6:50 PM MST
Astronomical Twilight 5:26 AM MST 7:18 PM MST
Moon 6:33 AM MST (10/23) 6:00 PM MST (10/23)
Length of Visible Light 11h 57m
Length of Day
11h 07m
Waning Crescent, 0% of the Moon is Illuminated
Oct 23
Waning Crescent
Oct 23
New
Oct 30
First Quarter
Nov 6
Full
Nov 14
Last Quarter

Hourly Weather History & Observations

Time (MST) Temp. Dew Point Humidity Pressure Visibility Wind Dir Wind Speed Gust Speed Precip Events Conditions
12:57 AM 75.9 °F 52.0 °F 43% 29.90 in 10.0 mi Calm Calm - N/A   Mostly Cloudy
1:57 AM 75.9 °F 51.1 °F 42% 29.90 in 10.0 mi ENE 3.5 mph - N/A   Mostly Cloudy
2:57 AM 75.0 °F 51.1 °F 43% 29.89 in 10.0 mi ENE 3.5 mph - N/A   Scattered Clouds
3:57 AM 73.9 °F 50.0 °F 43% 29.88 in 10.0 mi Calm Calm - N/A   Partly Cloudy
4:57 AM 72.0 °F 51.1 °F 48% 29.89 in 10.0 mi Calm Calm - N/A   Clear
5:57 AM 71.1 °F 50.0 °F 47% 29.90 in 10.0 mi NNE 4.6 mph - N/A   Clear
6:57 AM 71.1 °F 50.0 °F 47% 29.92 in 10.0 mi North 4.6 mph - N/A   Partly Cloudy
7:57 AM 75.9 °F 48.9 °F 38% 29.94 in 10.0 mi NNE 4.6 mph - N/A   Partly Cloudy
8:57 AM 81.0 °F 48.0 °F 31% 29.96 in 10.0 mi NNE 8.1 mph - N/A   Partly Cloudy
9:57 AM 84.9 °F 46.9 °F 27% 29.97 in 10.0 mi NNE 10.4 mph - N/A   Partly Cloudy
10:57 AM 89.1 °F 46.9 °F 23% 29.96 in 10.0 mi NNE 8.1 mph - N/A   Partly Cloudy
11:57 AM 93.0 °F 46.0 °F 20% 29.95 in 10.0 mi NE 3.5 mph - N/A   Partly Cloudy
12:57 PM 93.9 °F 45.0 °F 18% 29.92 in 10.0 mi North 3.5 mph - N/A   Partly Cloudy
1:57 PM 96.1 °F 43.0 °F 16% 29.89 in 10.0 mi Variable 3.5 mph - N/A   Partly Cloudy
2:57 PM 96.1 °F 44.1 °F 17% 29.87 in 10.0 mi Variable 5.8 mph - N/A   Clear
3:57 PM 95.0 °F 44.1 °F 17% 29.86 in 10.0 mi West 5.8 mph - N/A   Clear
4:57 PM 93.9 °F 43.0 °F 17% 29.86 in 10.0 mi WNW 4.6 mph - N/A   Clear
5:57 PM 91.9 °F 45.0 °F 20% 29.86 in 10.0 mi WSW 3.5 mph - N/A   Partly Cloudy
6:57 PM 89.1 °F 46.9 °F 23% 29.87 in 10.0 mi Calm Calm - N/A   Partly Cloudy
7:57 PM 82.9 °F 48.0 °F 29% 29.88 in 10.0 mi Calm Calm - N/A   Partly Cloudy
8:57 PM 81.0 °F 51.1 °F 35% 29.89 in - Calm Calm - N/A   Clear
9:57 PM 80.1 °F 48.9 °F 34% 29.91 in 10.0 mi NNE 3.5 mph - N/A   Clear
10:57 PM 78.1 °F 48.9 °F 36% 29.91 in 10.0 mi Calm Calm - N/A   Clear
11:57 PM 75.0 °F 48.9 °F 40% 29.92 in 10.0 mi South 4.6 mph - N/A   Clear